FW5443 Weather Reports


time (UTC)temp
F
wind
direction
speed
knots
gust
knots
rain 1hr
in
rain 24hr
in
rain mn
in
humidity
%
barometer
mb
20230201002026 26 59 1.7 4.3 0.00 0.00 0.00 52 1024.2
20230201001543 26 36 1.7 4.3 0.00 0.00 0.00 51 1024.0
20230201001027 27 48 0.9 4.3 0.00 0.00 0.00 52 1023.7
20230201000529 27 335 0.9 4.3 0.00 0.00 0.00 52 1023.8
20230201000044 27 41 1.7 4.3 0.00 0.00 0.00 52 1023.8
20230131235529 27 5 0.9 4.3 0.00 0.00 0.00 53 1023.8
20230131235032 27 32 0.9 4.3 0.00 0.00 0.00 53 1023.9
20230131234545 27 352 0.9 4.3 0.00 0.00 0.00 54 1023.8
20230131234029 27 0 0.9 3.5 0.00 0.00 0.00 54 1023.8
20230131233530 27 352 0.9 4.3 0.00 0.00 0.00 53 1023.8
20230131233041 28 49 0.0 5.2 0.00 0.00 0.00 53 1023.9
20230131232529 28 51 0.9 5.2 0.00 0.00 0.00 53 1023.9
20230131232035 28 51 1.7 4.3 0.00 0.00 0.00 53 1023.8
20230131231541 28 48 0.9 5.2 0.00 0.00 0.00 53 1023.8
20230131231030 28 333 0.9 8.7 0.00 0.00 0.00 53 1023.6
20230131230531 28 360 1.7 8.7 0.00 0.00 0.00 53 1023.6
20230131230045 28 35 0.9 3.5 0.00 0.00 0.00 53 1023.6
20230131225531 28 42 0.9 7.0 0.00 0.00 0.00 53 1023.5
20230131225027 28 17 1.7 7.0 0.00 0.00 0.00 52 1023.4
20230131224552 29 5 0.9 5.2 0.00 0.00 0.00 53 1023.6
20230131224029 29 69 0.9 5.2 0.00 0.00 0.00 52 1023.4
20230131223529 29 44 1.7 7.0 0.00 0.00 0.00 52 1023.1
20230131223040 29 309 1.7 7.0 0.00 0.00 0.00 53 1023.1
20230131222531 29 37 1.7 4.3 0.00 0.00 0.00 52 1023.1
20230131222029 30 0 0.9 5.2 0.00 0.00 0.00 52 1023.2
20230131221556 30 5 1.7 5.2 0.00 0.00 0.00 52 1022.9
20230131221029 30 0 0.9 7.0 0.00 0.00 0.00 52 1022.8
20230131220530 30 31 0.9 7.0 0.00 0.00 0.00 51 1022.8
20230131220049 30 38 1.7 7.0 0.00 0.00 0.00 52 1022.7
20230131215530 31 347 1.7 6.1 0.00 0.00 0.00 52 1022.5
20230131215030 31 355 1.7 7.0 0.00 0.00 0.00 51 1022.6
20230131214542 31 9 1.7 7.8 0.00 0.00 0.00 51 1022.5
20230131214029 31 39 1.7 7.8 0.00 0.00 0.00 51 1022.5
20230131213530 31 42 0.9 5.2 0.00 0.00 0.00 51 1022.6
20230131213052 32 39 1.7 5.2 0.00 0.00 0.00 50 1022.5
20230131212526 32 62 2.6 5.2 0.00 0.00 0.00 51 1022.5
20230131212029 32 54 0.9 7.8 0.00 0.00 0.00 51 1022.4
20230131211538 32 28 0.9 7.8 0.00 0.00 0.00 52 1022.5
20230131211030 32 28 1.7 7.8 0.00 0.00 0.00 52 1022.4
20230131210529 32 57 1.7 7.8 0.00 0.00 0.00 52 1022.3
20230131210108 32 5 0.9 7.8 0.00 0.00 0.00 52 1022.3
20230131205530 33 5 2.6 7.8 0.00 0.00 0.00 52 1022.1
20230131205030 33 26 1.7 5.2 0.00 0.00 0.00 53 1022.0
20230131204548 33 34 1.7 7.8 0.00 0.00 0.00 53 1021.9
20230131204029 33 48 1.7 10.4 0.00 0.00 0.00 53 1021.9
20230131203530 33 360 0.9 10.4 0.00 0.00 0.00 53 1021.9
20230131203045 33 15 1.7 5.2 0.00 0.00 0.00 54 1021.9
20230131202529 33 44 1.7 5.2 0.00 0.00 0.00 54 1022.0
20230131202032 33 26 0.9 5.2 0.00 0.00 0.00 55 1021.8
20230131201544 33 0 1.7 5.2 0.00 0.00 0.00 55 1021.8
20230131201029 33 346 1.7 10.4 0.00 0.00 0.00 55 1021.8
20230131200534 33 0 2.6 10.4 0.00 0.00 0.00 54 1021.7
20230131200039 33 74 1.7 7.8 0.00 0.00 0.00 56 1021.7
20230131195528 33 18 2.6 7.8 0.00 0.00 0.00 56 1021.8
20230131195027 33 22 1.7 10.4 0.00 0.00 0.00 56 1021.9
20230131194601 34 19 2.6 10.4 0.00 0.00 0.00 55 1021.8
20230131194029 34 338 1.7 10.4 0.00 0.00 0.00 55 1021.7
20230131193531 34 52 2.6 12.2 0.00 0.00 0.00 55 1021.8
20230131193044 34 56 1.7 12.2 0.00 0.00 0.00 53 1021.7
20230131192529 34 352 2.6 12.2 0.00 0.00 0.00 56 1021.8
20230131192029 34 352 1.7 10.4 0.00 0.00 0.00 55 1021.7
20230131191536 34 22 1.7 7.8 0.00 0.00 0.00 56 1021.6
20230131191028 34 17 2.6 7.8 0.00 0.00 0.00 55 1021.6
20230131190530 34 5 0.9 6.1 0.00 0.00 0.00 57 1021.5
20230131190041 34 5 1.7 5.2 0.00 0.00 0.00 57 1021.5
20230131185532 34 24 1.7 7.0 0.00 0.00 0.00 57 1021.4
20230131185026 34 44 2.6 7.0 0.00 0.00 0.00 57 1021.3
20230131184540 34 5 1.7 5.2 0.00 0.00 0.00 60 1021.4
20230131184030 34 314 0.9 14.8 0.00 0.00 0.00 58 1021.3
20230131183529 34 5 1.7 14.8 0.00 0.00 0.00 58 1021.5
20230131183036 34 65 3.5 14.8 0.00 0.00 0.00 57 1021.1
20230131182528 34 10 2.6 11.3 0.00 0.00 0.00 61 1021.1
20230131182029 34 28 2.6 8.7 0.00 0.00 0.00 57 1021.1
20230131181538 34 19 2.6 8.7 0.00 0.00 0.00 60 1021.2
20230131181027 34 360 2.6 9.6 0.00 0.00 0.00 60 1021.2
20230131180528 34 28 1.7 9.6 0.00 0.00 0.00 61 1021.3
20230131180043 34 352 2.6 9.6 0.00 0.00 0.00 62 1021.2
20230131175528 34 26 1.7 7.8 0.00 0.00 0.00 65 1021.3
20230131175028 33 70 2.6 7.8 0.00 0.00 0.00 63 1021.3
20230131174549 34 10 2.6 7.8 0.00 0.00 0.00 63 1021.2
20230131174027 34 49 0.9 7.8 0.00 0.00 0.00 64 1021.2
20230131173530 34 31 2.6 8.7 0.00 0.00 0.00 63 1021.4
20230131173041 35 349 1.7 8.7 0.00 0.00 0.00 61 1021.3
20230131172530 35 46 1.7 7.8 0.00 0.00 0.00 60 1021.2
20230131172029 35 5 2.6 7.8 0.00 0.00 0.00 60 1021.3
20230131171543 35 62 2.6 7.8 0.00 0.00 0.00 60 1021.3
20230131171032 36 25 3.5 7.8 0.00 0.00 0.00 59 1021.3
20230131170530 36 21 2.6 8.7 0.00 0.00 0.00 59 1021.4
20230131170105 36 28 3.5 8.7 0.00 0.00 0.00 60 1021.4
20230131165529 36 33 1.7 5.2 0.00 0.00 0.00 66 1021.3
20230131165028 36 16 1.7 7.0 0.00 0.00 0.00 67 1021.3
20230131164545 35 26 2.6 7.0 0.00 0.00 0.00 66 1021.5
20230131164028 35 39 2.6 7.0 0.00 0.00 0.00 66 1021.5
20230131163529 35 37 0.9 4.3 0.00 0.00 0.00 68 1021.7
20230131163046 35 306 1.7 7.8 0.00 0.00 0.00 68 1021.8
20230131162526 35 0 0.9 7.8 0.00 0.00 0.00 69 1021.9
20230131162026 35 0 1.7 7.0 0.00 0.00 0.00 69 1022.0
20230131161542 35 36 2.6 7.0 0.00 0.00 0.00 68 1022.0
20230131161029 35 17 2.6 7.0 0.00 0.00 0.00 68 1021.8
20230131160529 35 310 1.7 7.0 0.00 0.00 0.00 70 1021.9
20230131160044 35 347 2.6 7.8 0.00 0.00 0.00 70 1021.9
20230131155529 34 21 1.7 7.8 0.00 0.00 0.00 71 1021.9
20230131155029 34 9 2.6 7.8 0.00 0.00 0.00 74 1021.9
20230131154552 35 38 1.7 4.3 0.00 0.00 0.00 77 1021.9
20230131154028 35 303 0.9 2.6 0.00 0.00 0.00 77 1021.8
20230131153528 34 18 0.9 4.3 0.00 0.00 0.00 78 1021.8
20230131153038 34 322 0.9 4.3 0.00 0.00 0.00 77 1021.9
20230131152529 34 352 0.9 3.5 0.00 0.00 0.00 80 1021.7
20230131152027 33 40 0.9 2.6 0.00 0.00 0.00 82 1021.8
20230131151539 33 29 0.0 2.6 0.00 0.00 0.00 84 1021.7
20230131151029 32 19 0.0 2.6 0.00 0.00 0.00 87 1021.7
20230131150529 32 5 0.9 3.5 0.00 0.00 0.00 87 1021.6
20230131150037 32 174 0.9 3.5 0.00 0.00 0.00 87 1021.6
20230131145532 32 0 0.9 3.5 0.00 0.00 0.00 87 1021.5
20230131145029 32 41 0.0 2.6 0.00 0.00 0.00 87 1021.5
20230131144546 32 352 0.0 1.7 0.00 0.00 0.00 87 1021.3
20230131144031 32 0 0.0 2.6 0.00 0.00 0.00 87 1021.4
20230131143533 32 0 0.0 2.6 0.00 0.00 0.00 87 1021.3
20230131143041 32 341 0.0 1.7 0.00 0.00 0.00 87 1021.3
20230131142531 32 331 0.0 3.5 0.00 0.00 0.00 87 1021.4
20230131142028 32 5 0.0 3.5 0.00 0.00 0.00 87 1021.3
20230131141540 32 225 0.0 2.6 0.00 0.00 0.00 87 1021.3
20230131141030 32 71 0.0 2.6 0.00 0.00 0.00 87 1021.3
20230131140531 32 59 0.9 2.6 0.00 0.00 0.00 86 1021.2
20230131140035 32 0 0.0 1.7 0.00 0.00 0.00 86 1021.3
20230131135532 32 22 0.0 2.6 0.00 0.00 0.00 86 1021.3
20230131135030 31 0 0.9 2.6 0.00 0.00 0.00 86 1021.2
20230131134541 31 0 0.0 0.9 0.00 0.00 0.00 86 1021.3
20230131134029 31 0 0.0 0.9 0.00 0.00 0.00 86 1021.0
20230131133530 31 0 0.0 1.7 0.00 0.00 0.00 86 1020.9
20230131133047 31 0 0.0 1.7 0.00 0.00 0.00 86 1020.9
20230131132529 31 0 0.0 0.9 0.00 0.00 0.00 86 1021.0
20230131132031 31 0 0.0 0.9 0.00 0.00 0.00 86 1020.9
20230131131543 31 0 0.0 0.9 0.00 0.00 0.00 86 1020.9
20230131131029 31 19 0.0 0.9 0.00 0.00 0.00 86 1020.8
20230131130531 31 0 0.0 0.9 0.00 0.00 0.00 86 1020.9
20230131130059 31 0 0.0 0.9 0.00 0.00 0.00 86 1020.8
20230131125530 31 0 0.0 0.9 0.00 0.00 0.00 86 1020.8
20230131125030 31 0 0.0 1.7 0.00 0.00 0.00 86 1020.7
20230131124543 31 0 0.0 1.7 0.00 0.00 0.00 86 1020.8
20230131124031 31 0 0.0 1.7 0.00 0.00 0.00 86 1020.7
20230131123530 31 0 0.0 2.6 0.00 0.00 0.00 86 1020.7
20230131123055 31 0 0.0 2.6 0.00 0.00 0.00 86 1020.7
20230131122529 31 0 0.0 1.7 0.00 0.00 0.00 86 1020.6
20230131122031 31 0 0.0 1.7 0.00 0.00 0.00 86 1020.5
20230131121550 31 39 0.0 1.7 0.00 0.00 0.00 86 1020.4
20230131121029 31 0 0.9 1.7 0.00 0.00 0.00 86 1020.2
20230131120530 31 0 0.0 1.7 0.00 0.00 0.00 86 1020.4
20230131120039 31 0 0.0 2.6 0.00 0.00 0.00 86 1020.5
20230131115528 31 25 0.0 2.6 0.00 0.00 0.00 86 1020.4
20230131115029 31 32 0.0 2.6 0.00 0.00 0.00 85 1020.2
20230131114534 31 18 0.0 2.6 0.00 0.00 0.00 85 1020.2
20230131114030 31 0 0.0 2.6 0.00 0.00 0.00 85 1020.1
20230131113530 32 18 0.0 2.6 0.00 0.00 0.00 85 1019.9
20230131113041 32 0 0.0 4.3 0.00 0.00 0.00 85 1020.0
20230131112530 32 348 0.9 4.3 0.00 0.00 0.00 85 1020.0
20230131112036 32 31 0.9 4.3 0.00 0.00 0.00 85 1019.8
20230131111556 32 0 0.9 3.5 0.00 0.00 0.00 85 1019.7
20230131111033 32 46 0.9 3.5 0.00 0.00 0.00 85 1019.6
20230131110531 32 20 0.9 4.3 0.00 0.00 0.00 85 1019.7
20230131110034 32 69 1.7 4.3 0.00 0.00 0.00 85 1019.8
20230131105531 33 22 0.9 9.6 0.00 0.00 0.00 85 1019.7
20230131105029 33 35 0.0 9.6 0.00 0.00 0.00 85 1019.7
20230131104543 33 30 0.9 9.6 0.00 0.00 0.00 85 1019.4
20230131104035 33 325 0.9 2.6 0.00 0.00 0.00 85 1019.3
20230131103529 33 72 0.0 1.7 0.00 0.00 0.00 85 1019.2
20230131103043 33 334 0.0 2.6 0.00 0.00 0.00 85 1019.3
20230131102530 33 0 0.0 2.6 0.00 0.00 0.00 84 1019.1
20230131102030 33 22 0.0 0.9 0.00 0.00 0.00 84 1019.2
20230131101540 33 0 0.0 0.9 0.00 0.00 0.00 84 1019.1
20230131101030 33 0 0.0 0.9 0.00 0.00 0.00 84 1019.1
20230131100529 33 0 0.0 3.5 0.00 0.00 0.00 84 1018.7
20230131100039 33 42 0.9 3.5 0.00 0.00 0.00 84 1018.9
20230131095529 34 0 0.9 2.6 0.00 0.00 0.00 84 1018.9
20230131095028 34 0 0.0 2.6 0.00 0.00 0.00 84 1018.8
20230131094550 34 9 0.9 3.5 0.00 0.00 0.00 84 1019.2
20230131094028 34 0 0.0 3.5 0.00 0.00 0.00 84 1018.9
20230131093529 34 0 0.9 3.5 0.00 0.00 0.00 84 1018.6
20230131093050 34 5 0.9 2.6 0.00 0.00 0.00 84 1018.7
20230131092530 34 0 0.0 1.7 0.00 0.00 0.00 83 1018.7
20230131092028 34 42 0.0 2.6 0.00 0.00 0.00 83 1018.7
20230131091540 35 0 0.0 2.6 0.00 0.00 0.00 83 1018.5
20230131091029 35 22 0.9 2.6 0.00 0.00 0.00 83 1018.6
20230131090532 35 20 0.0 2.6 0.00 0.00 0.00 83 1018.5
20230131090048 35 19 0.9 2.6 0.00 0.00 0.00 83 1018.6
20230131085530 35 26 0.9 2.6 0.00 0.00 0.00 83 1018.5
20230131085031 35 30 0.0 2.6 0.00 0.00 0.00 83 1018.3
20230131084540 35 37 0.9 2.6 0.00 0.00 0.00 83 1018.5
20230131084031 35 10 0.0 2.6 0.00 0.00 0.00 83 1018.5
20230131083528 35 325 0.0 0.9 0.00 0.00 0.00 82 1018.3
20230131083036 35 0 0.0 0.9 0.00 0.00 0.00 82 1018.1
20230131082529 35 0 0.0 0.9 0.00 0.00 0.00 82 1018.1
20230131082031 36 325 0.0 0.9 0.00 0.00 0.00 82 1018.3
20230131081534 36 0 0.0 1.7 0.00 0.00 0.00 82 1018.5
20230131081029 36 0 0.0 1.7 0.00 0.00 0.00 82 1018.5
20230131080528 36 47 0.0 1.7 0.00 0.00 0.00 82 1018.4
20230131080035 36 0 0.0 1.7 0.00 0.00 0.00 82 1018.2
20230131075531 36 0 0.0 1.7 0.00 0.00 0.00 82 1018.2
20230131075030 36 47 0.0 1.7 0.00 0.00 0.00 82 1018.3
20230131074539 36 0 0.0 1.7 0.00 0.00 0.00 83 1018.5
20230131074027 36 0 0.0 2.6 0.00 0.00 0.00 83 1018.4
20230131073530 36 51 0.0 2.6 0.00 0.00 0.00 83 1018.5
20230131073056 36 51 0.0 2.6 0.00 0.00 0.00 83 1018.4
20230131072527 36 41 0.0 1.7 0.00 0.00 0.00 83 1018.3
20230131072028 37 41 0.0 1.7 0.00 0.00 0.00 83 1018.3
20230131071542 37 44 0.0 1.7 0.00 0.00 0.00 82 1018.2
20230131071029 37 0 0.0 1.7 0.00 0.00 0.00 82 1018.2
20230131070527 37 0 0.0 1.7 0.00 0.00 0.00 82 1018.0
20230131070046 37 44 0.0 1.7 0.00 0.00 0.00 82 1017.8
20230131065526 37 44 0.0 2.6 0.00 0.00 0.00 82 1017.8
20230131065031 37 0 0.0 2.6 0.00 0.00 0.00 82 1017.6
20230131064533 37 352 0.9 1.7 0.00 0.00 0.00 83 1017.8
20230131064030 37 13 0.0 2.6 0.00 0.00 0.00 83 1017.7
20230131063528 37 13 0.0 2.6 0.00 0.00 0.00 83 1017.7
20230131063048 37 0 0.0 2.6 0.00 0.00 0.00 83 1017.6
20230131062527 37 28 0.9 2.6 0.00 0.00 0.00 83 1017.8
20230131062033 37 0 0.0 3.5 0.00 0.00 0.00 83 1017.4
20230131061540 37 324 0.9 3.5 0.00 0.00 0.00 83 1017.4
20230131061030 37 34 0.9 2.6 0.00 0.00 0.00 83 1017.5
20230131060528 37 352 0.9 2.6 0.00 0.00 0.00 83 1017.5
20230131060155 37 36 0.9 2.6 0.00 0.00 0.00 83 1017.4
20230131055528 38 0 0.9 2.6 0.00 0.00 0.00 83 1017.3
20230131055029 38 32 0.0 2.6 0.00 0.00 0.00 83 1017.3
20230131054548 38 33 0.9 4.3 0.00 0.00 0.00 83 1017.2
20230131054029 38 352 0.0 4.3 0.00 0.00 0.00 83 1017.2
20230131053529 38 345 1.7 4.3 0.00 0.00 0.00 83 1017.3
20230131053035 38 47 0.9 3.5 0.00 0.00 0.00 83 1017.5
20230131052531 38 5 1.7 3.5 0.00 0.00 0.00 83 1017.6
20230131052029 38 57 0.9 4.3 0.00 0.00 0.00 83 1017.4
20230131051543 38 13 0.9 5.2 0.00 0.00 0.00 83 1017.5
20230131051029 38 37 0.9 5.2 0.00 0.00 0.00 83 1017.5
20230131050529 39 317 0.9 7.8 0.00 0.00 0.00 83 1017.5
20230131050109 39 15 1.7 7.8 0.00 0.00 0.00 84 1017.5
20230131045529 39 20 1.7 6.1 0.00 0.00 0.00 84 1017.9
20230131045030 39 37 0.9 5.2 0.00 0.00 0.00 84 1017.7
20230131044535 39 24 0.9 7.0 0.00 0.00 0.00 84 1017.7
20230131044029 39 5 1.7 7.0 0.00 0.00 0.00 84 1017.9
20230131043528 39 74 1.7 5.2 0.00 0.00 0.00 84 1018.0
20230131043043 39 36 1.7 4.3 0.00 0.00 0.00 84 1017.8
20230131042530 39 42 1.7 4.3 0.00 0.00 0.00 84 1017.8
20230131042029 39 53 0.9 4.3 0.00 0.00 0.00 83 1017.7
20230131041537 39 39 1.7 4.3 0.00 0.00 0.00 83 1017.4
20230131041029 39 23 0.9 3.5 0.00 0.00 0.00 83 1017.5
20230131040530 39 0 0.0 3.5 0.00 0.00 0.00 83 1017.5
20230131040037 39 32 0.9 3.5 0.00 0.00 0.00 83 1017.3
20230131035529 39 40 0.0 3.5 0.00 0.00 0.00 83 1017.5
20230131035029 39 40 0.9 3.5 0.00 0.00 0.00 83 1017.3
20230131034547 39 360 0.0 1.7 0.00 0.00 0.00 82 1017.5
20230131034033 39 0 0.9 1.7 0.00 0.00 0.00 82 1017.5
20230131033530 38 155 0.9 1.7 0.00 0.00 0.00 82 1017.4
20230131033044 38 155 0.0 0.9 0.00 0.00 0.00 81 1017.3
20230131032530 38 0 0.0 0.0 0.00 0.00 0.00 81 1017.1
20230131032029 38 0 0.0 0.9 0.00 0.00 0.00 81 1017.0
20230131031544 38 0 0.0 0.9 0.00 0.00 0.00 81 1017.1
20230131031029 38 0 0.0 0.9 0.00 0.00 0.00 81 1017.1
20230131030531 38 0 0.0 0.0 0.00 0.00 0.00 81 1017.0
20230131030053 38 0 0.0 0.0 0.00 0.00 0.00 81 1017.1
20230131025531 38 0 0.0 0.0 0.00 0.00 0.00 81 1017.1
20230131025029 38 0 0.0 0.9 0.00 0.00 0.00 81 1017.1
20230131024538 38 0 0.0 0.9 0.00 0.00 0.00 81 1017.2
20230131024030 38 0 0.0 0.9 0.00 0.00 0.00 81 1017.2
20230131023528 38 0 0.0 0.0 0.00 0.00 0.00 80 1017.3
20230131023031 38 0 0.0 0.0 0.00 0.00 0.00 81 1017.3
20230131022531 38 0 0.0 0.0 0.00 0.00 0.00 80 1017.4
20230131022027 38 0 0.0 0.9 0.00 0.00 0.00 80 1017.4
20230131021535 38 0 0.0 0.9 0.00 0.00 0.00 80 1017.4
20230131021027 38 0 0.0 0.0 0.00 0.00 0.00 80 1017.4
20230131020529 38 0 0.0 0.0 0.00 0.00 0.00 80 1017.5
20230131020043 38 0 0.0 0.0 0.00 0.00 0.00 80 1017.3
20230131015530 38 0 0.0 0.0 0.00 0.00 0.00 79 1017.3
20230131015030 38 0 0.0 0.0 0.00 0.00 0.00 79 1017.4
20230131014534 38 0 0.0 0.0 0.00 0.00 0.00 79 1017.4
20230131014029 38 0 0.0 0.0 0.00 0.00 0.00 79 1017.4
20230131013529 38 0 0.0 0.0 0.00 0.00 0.00 79 1017.4
20230131013045 38 0 0.0 0.0 0.00 0.00 0.00 79 1017.3
20230131012527 38 0 0.0 0.0 0.00 0.00 0.00 78 1017.5
20230131012030 38 0 0.0 0.0 0.00 0.00 0.00 78 1017.4
20230131011534 38 0 0.0 0.9 0.00 0.00 0.00 78 1017.3
20230131011030 39 0 0.0 0.9 0.00 0.00 0.00 77 1017.6
20230131010527 39 0 0.0 0.9 0.00 0.00 0.00 77 1017.6
20230131010044 39 0 0.0 0.9 0.00 0.00 0.00 77 1017.6
20230131005531 39 0 0.0 0.9 0.00 0.00 0.00 77 1017.8
20230131005029 39 0 0.0 0.0 0.00 0.00 0.00 77 1017.7
20230131004535 39 0 0.0 0.0 0.00 0.00 0.00 77 1017.9
20230131004031 40 0 0.0 0.0 0.00 0.00 0.00 77 1017.9
20230131003527 40 0 0.0 0.0 0.00 0.00 0.00 77 1017.9
20230131003031 40 0 0.0 0.0 0.00 0.00 0.00 77 1018.0
20230131002532 40 0 0.0 0.0 0.00 0.00 0.00 76 1017.9